Regional Weather Roundup
Issued by NWS Upton, NY

Current Version | Previous Version | Graphics & Text | Print | Product List | Glossary Off
Versions: 1 2 3 4 5 6 7 8 9 10 11 12 13 14 15 16 17 18 19 20 21 22 23 24 25 26 27 28 29 30 31 32 33 34 35 36 37 38 39 40 41 42 43 44 45 46 47 48 49 50

000
ASUS41 KOKX 050405
RWROKX

REGIONAL WEATHER ROUNDUP
NATIONAL WEATHER SERVICE NEW YORK NY
1100 PM EST WED MAR 04 2015

NOTE: "FAIR" INDICATES FEW OR NO CLOUDS BELOW 12,000 FEET WITH NO
SIGNIFICANT WEATHER AND/OR OBSTRUCTIONS TO VISIBILITY.

NYZ071-072-176-178-NJZ106-104-050500-
NEW YORK CITY METRO AREA


CITY           SKY/WX    TMP DP  RH WIND       PRES   REMARKS
CENTRAL PARK   LGT RAIN  41  38  89 W9        29.94R FOG
LAGUARDIA APRT LGT RAIN  43  37  79 W7G17     29.91S
KENNEDY INTL   LGT RAIN  40  37  89 W8        29.93S FOG     WCI  34
NEWARK/LIBERTY LGT RAIN  41  39  93 W8        29.92S FOG
BRNX BOT. GARD   N/A     41  39  93 SW10      29.91R
TETERBORO      RAIN      40  38  93 SW3       29.91R FOG
$$

NYZ177-179-078>081-050500-
LONG ISLAND NEW YORK

CITY           SKY/WX    TMP DP  RH WIND       PRES   REMARKS
FARMINGDALE    LGT RAIN  40  39  97 W6        29.91S FOG
ISLIP          LGT RAIN  39  37  92 W6        29.89S FOG     WCI  35
SHIRLEY        LGT RAIN  40  39  97 W5        29.91F FOG
WESTHAMPTON    LGT RAIN  38  36  92 W3        29.91F FOG
MONTAUK POINT    N/A     40  37  89 SW5       29.89F
$$

NYZ052-065-067-050500-
HUDSON VALLEY

CITY           SKY/WX    TMP DP  RH WIND       PRES   REMARKS
WHITE PLAINS   RAIN      39  37  92 W8        29.89R FOG     WCI  33
NEWBURGH       CLOUDY    39  34  81 W12       29.90R WCI  32
MONTGOMERY     CLOUDY    37  34  89 SW6       29.89R WCI  32
POUGHKEEPSIE   CLOUDY    38  33  82 SW6       29.89R WCI  33
ALBANY         CLOUDY    34  22  61 NW14      29.94R WCI  25
$$

NJZ001-105-106-008-010-013-015-019>022-104-050500-
NEW JERSEY

CITY           SKY/WX    TMP DP  RH WIND       PRES   REMARKS
NEWARK/LIBERTY LGT RAIN  41  39  93 W8        29.92S FOG
TETERBORO      RAIN      40  38  93 SW3       29.91R FOG
CALDWELL       LGT RAIN  39  37  92 CALM      29.92R FOG
MORRISTOWN     RAIN      41  37  87 CALM      29.92R
SOMERVILLE     LGT RAIN  39  37  92 CALM      29.91R FOG
SUSSEX         LGT RAIN  37  34  89 SW5       29.90R WCI  33
ANDOVER          N/A     37  36  96 CALM      29.91R
TRENTON        LGT RAIN  40  38  93 W5        29.92S FOG
MILLVILLE      LGT RAIN N/A N/A N/A N7        29.92S
ATLANTIC CITY  LGT RAIN  42  41  96 N5        29.92F VSB 3/4
WRIGHTSTOWN    LGT RAIN  40  40 100 NW5       29.91S FOG
TOMS RIVER     CLOUDY    43  39  87 NW3       29.94S VSB 3/4
BELMAR         CLOUDY    41  37  87 W6        29.92S
$$

PAZ047>061-062-071-050500-
EASTERN PENNSYLVANIA

CITY           SKY/WX    TMP DP  RH WIND       PRES   REMARKS
PHILADELPHIA   LGT RAIN  41  40  96 NW8       29.94S FOG
ALLENTOWN      LGT RAIN  37  34  89 SW7       29.94R FOG     WCI  32
SCRANTON       LGT RAIN  37  32  82 SW9       29.91R WCI  30
$$

CTZ002-004>006-009-010-012-RIZ004-006-007-MAZ004-011-015-050500-
SOUTHERN NEW ENGLAND
 IN CT

CITY           SKY/WX    TMP DP  RH WIND       PRES   REMARKS
BRADLEY INTL   CLOUDY    37  31  78 CALM      29.87R
HARTFORD       CLOUDY    41  32  70 SW10      29.89R
DANBURY        LGT RAIN  38  34  85 W5        29.90R WCI  34
WTRBRY/OXFORD  CLOUDY    37  28  70 W3        29.89R
BRIDGEPORT     LGT RAIN  35  35 100 W5        29.90S FOG     WCI  31
MERIDEN        LGT RAIN  37  34  89 S5        29.89R WCI  33
NEW HAVEN      LGT RAIN  36  35  96 CALM      29.89R FOG
CHESTER        LGT RAIN  37  36  93 W3        29.88S
GROTON         LGT RAIN  35  35 100 SW3       29.88F FOG
WILLIMANTIC    CLOUDY    39  32  76 SW3       29.87R

 IN RI

CITY           SKY/WX    TMP DP  RH WIND       PRES   REMARKS
PROVIDENCE     LGT RAIN  36  34  92 S5        29.87S WCI  32
BLOCK ISLAND   CLOUDY    37  34  87 W8        29.88F WCI  31
WESTERLY       RAIN      37  36  96 W5        29.89F FOG     WCI  33

 IN MA

CITY           SKY/WX    TMP DP  RH WIND       PRES   REMARKS
BOSTON         CLOUDY    39  30  70 SW7       29.86R WCI  34
WORCESTER      CLOUDY    35  27  72 W10G18    29.81S WCI  27
WESTFIELD      MOCLDY    37  27  67 NW7       29.87R WCI  32
PROVINCETOWN   CLOUDY    36  34  93 SW9       29.87R WCI  29
NANTUCKET      MIX PCPN  37  35  92 W9        29.89S FOG     WCI  30
$$

ANZ330-335-338-340-345-350-353-355-050500-
COASTAL MARINE OBSERVATIONS


STATION/POSITION TIME  SKY/WX   TEMP    WIND        PRES    VSBY  WAVE
                                AIR SEA DIR/SP/G                  HT/PER
                 (UTC)          (F)     (DEG/KT/KT) (MB)    (MI)  (FT/S)
NY HARB ENTRANCE 0400            40 38  240/  6/  8 1013.0          4/ 8
4S FIRE IS       0400               33                N/A           6/10
20S FIRE ISLAND  0300               35              1014.0          5/ 9
23SW MTP         0400                                 N/A           7/10
HUDSON CANYON    NOT AVBL
EXECUTION ROCKS  NOT AVBL
WESTERN LI SOUND NOT AVBL
CENTRAL LI SOUND NOT AVBL
EASTERN LI SOUND NOT AVBL
ROBBINS REEF     0400            42     280/ 10/ 12 1012.1
$$


>>>>>>>>>>>>>>>>>>>>>>>>>>>> KEY <<<<<<<<<<<<<<<<<<<<<<<<<<<
>                                                          <
>     SKY/WX - SKY CONDITION/PRESENT WEATHER               <
>     TMP    - TEMPERATURE IN FAHRENHEIT                   <
>     DP     - DEWPOINT IN FAHRENHEIT                      <
>     RH     - RELATIVE HUMIDITY IN PERCENT                <
>     WIND   - DIRECTION AND SPEED IN MPH                  <
>     PRES   - MEAN SEA LEVEL PRESSURE IN INCHES OF HG     <
>     WCI    - WIND CHILL INDEX                            <
>     VSB    - VISIBILITY IN MILES                         <
>     HX     - HEAT INDEX                                  <
>     TC     - TEMPERATURE IN CELSIUS                      <
>     VRB    - VARIABLE WIND DIRECTION                     <
>                                                          <
>>>>>>>>>>>>>>>>>>>>>>>>>>>> KEY <<<<<<<<<<<<<<<<<<<<<<<<<<<





USA.gov is the U.S. government's official web portal to all federal, state and local government web resources and services.